Wind_Gust
15 20 15 17 17 20 20 21 23 30 30 29 28 26 29 20 21 15 17 13 23 16 9 10 15 11 22 14 16 16 24 20 20 17 17 18 15 22 20 30 30 30 27 29 27 27 25 20 17 18 18 19 20 21 22 22 22 21 21 21 22 20 20 21 20 19 18 18 18 18 17 17 17 16 14 12 10 9 11 13 13 13 12 12 14 13 12 13 12 14 14 14 14 14 14 14 15
20 16 13 14 20 22 24 22 29 21 28 29 30 24 25 15 12 24 22 10 19 15 10 10 12 13 10 11 14 12 21 21 23 25 19 16 20 22 27 30 27 30 25 27 28 26 25 26 17 17 18 18 20 21 20 21 22 21 22 21 21 21 20 21 20 19 18 18 18 17 17 17 17 16 14 13 11 10 9 8 11 13 13 12 13 13 12 12 13 13 14 14 14 14 15 15 15
17 16 18 18 20 25 20 24 29 25 26 27 27 31 20 15 18 16 10 9 11 9 10 10 10 13 15 11 18 15 18 20 23 23 23 17 23 22 28 29 28 27 25 26 28 26 25 25 17 17 18 19 20 20 20 20 21 21 21 21 21 21 21 21 20 20 19 18 18 17 16 16 16 16 15 14 12 10 8 8 11 13 12 12 12 12 12 12 12 12 14 13 14 15 15 15 14
22 17 20 20 22 21 23 25 27 28 26 23 22 30 24 17 14 17 10 8 11 11 12 18 19 12 15 17 17 16 19 21 20 21 23 19 21 20 26 25 25 26 24 25 27 26 24 25 17 18 18 19 19 19 20 21 20 21 21 21 22 22 21 20 21 20 19 18 17 16 16 15 15 15 15 14 11 9 10 9 10 13 12 11 12 11 12 11 12 12 13 13 14 15 15 14 14
19 19 22 24 23 23 25 25 26 27 28 22 21 22 13 17 15 17 13 11 10 13 13 11 13 10 13 15 9 14 18 18 16 17 24 17 21 22 24 25 27 25 26 26 27 26 26 24 18 18 18 19 19 18 19 20 20 20 21 22 22 22 22 22 20 19 19 18 16 16 15 15 14 15 15 13 10 11 12 12 9 11 10 10 9 10 10 9 11 11 12 13 14 15 14 14 14
20 19 20 23 27 26 28 26 27 29 27 24 24 20 16 14 19 10 9 12 12 14 13 13 15 20 17 18 18 17 16 13 17 19 20 19 22 24 24 24 25 24 25 25 25 25 28 20 19 18 18 19 19 19 19 19 20 21 21 22 23 23 21 21 19 18 17 16 15 15 15 15 16 15 14 13 13 14 15 14 12 11 10 11 12 11 11 10 10 10 11 12 15 14 14 13 13
23 21 23 22 28 26 24 26 26 25 28 26 26 15 11 13 12 14 16 13 13 16 13 18 13 13 16 18 23 21 18 16 12 19 17 23 22 23 23 23 24 25 25 27 24 27 30 19 18 18 19 22 20 20 19 19 20 20 21 21 20 21 21 19 17 17 16 15 15 15 16 16 16 16 14 13 12 15 15 12 13 11 11 11 11 11 11 11 10 10 11 13 13 15 13 11 11
18 25 23 25 24 25 26 26 28 24 22 24 18 11 10 12 12 13 12 16 21 23 21 16 14 20 16 17 17 17 17 16 18 19 22 24 23 22 20 22 24 25 25 23 22 26 25 19 18 18 19 20 23 23 20 20 19 19 20 20 19 19 19 19 18 16 14 15 15 15 15 18 17 16 15 15 12 14 15 13 13 13 11 10 9 10 10 10 10 12 12 14 14 14 12 11 9
22 28 15 25 26 25 24 27 27 24 19 15 16 14 11 18 15 15 14 17 13 16 16 18 16 22 19 17 20 19 17 14 19 18 20 22 22 20 20 20 22 25 23 23 26 28 27 19 18 18 19 21 21 22 21 21 19 19 20 20 19 18 17 17 18 16 16 15 15 15 17 18 19 14 15 15 13 13 14 15 14 13 13 11 11 10 11 11 12 13 13 14 14 13 12 9 8
24 25 23 27 23 27 24 25 26 24 30 15 11 11 11 11 16 17 17 14 19 11 17 17 16 18 23 20 20 15 18 17 19 20 21 21 20 18 18 20 19 22 23 23 25 28 26 20 16 17 18 19 20 20 19 19 19 19 20 19 17 16 16 15 15 15 16 15 16 18 17 18 18 15 13 13 13 12 14 16 16 14 13 13 12 12 11 12 13 13 13 13 13 12 11 9 8
28 27 22 25 25 26 26 23 24 22 20 13 15 11 11 12 15 17 16 19 14 20 15 16 18 17 18 21 18 14 15 17 19 22 21 20 19 19 20 19 21 24 26 20 22 24 27 26 21 16 17 17 17 17 16 17 17 16 17 16 16 16 14 14 14 15 14 14 15 17 19 18 18 16 14 13 12 13 15 15 15 14 13 13 13 12 12 13 12 12 11 11 11 10 8 8 6
26 25 24 26 26 25 22 26 22 22 15 13 20 13 13 15 11 18 18 21 18 19 17 15 23 18 21 22 19 17 15 19 19 20 20 20 22 20 20 23 23 25 23 21 22 23 24 26 26 20 16 16 15 15 15 14 15 15 15 15 15 14 14 13 13 13 13 14 15 20 21 18 19 15 14 14 14 14 15 15 15 14 13 14 13 13 12 13 13 12 12 10 9 7 6 6 6
29 21 23 26 26 25 23 23 20 14 13 17 19 19 10 16 17 14 16 18 20 19 22 21 10 19 23 20 20 16 17 19 20 20 21 22 22 21 19 23 26 25 22 23 24 26 24 25 26 26 21 18 15 14 14 14 14 15 14 15 15 14 15 15 14 13 13 13 15 20 22 20 20 18 17 13 17 15 14 14 13 13 13 14 14 13 13 13 13 13 13 12 9 8 7 7 5
28 24 22 27 23 28 27 20 21 21 23 22 15 12 9 13 10 14 16 19 19 23 17 17 13 20 25 22 21 18 19 20 21 22 23 20 20 22 21 23 22 22 21 22 25 26 25 26 26 24 25 24 22 18 13 13 14 14 15 16 16 15 16 15 15 13 14 14 15 19 20 20 19 17 16 15 16 15 13 13 13 13 14 14 14 14 13 13 12 12 11 11 10 8 7 8 6
28 21 24 26 28 25 22 28 20 19 25 19 17 12 12 12 12 16 19 20 23 13 20 14 14 17 16 17 20 22 22 21 21 20 21 21 20 22 25 24 22 18 17 19 20 24 24 25 26 26 22 23 22 21 21 20 15 15 15 15 16 16 15 16 17 15 15 15 16 17 18 20 19 19 17 15 15 14 14 13 12 13 15 15 14 14 13 12 12 11 11 10 9 8 6 5 4
25 24 24 26 27 25 20 24 21 17 17 13 17 10 17 12 13 17 17 19 22 12 17 19 12 13 27 23 22 27 25 24 22 21 21 21 21 22 25 24 22 18 20 20 22 24 24 25 24 26 24 24 20 18 20 20 17 17 16 16 17 15 15 15 15 16 15 15 15 15 16 20 20 21 19 20 15 15 15 14 14 14 15 15 14 13 12 11 11 11 10 9 9 8 7 4 4
22 22 24 27 28 24 19 21 19 28 18 11 13 12 18 11 14 14 12 16 16 17 18 17 16 13 19 18 27 33 27 23 21 22 21 19 22 24 24 23 22 21 21 23 21 22 24 24 25 24 23 22 19 18 19 17 18 19 17 16 16 16 15 15 14 16 14 14 15 13 14 18 16 19 17 17 17 19 9 12 14 15 15 15 14 13 12 12 11 11 10 9 9 9 7 6 5
21 27 27 27 26 25 17 18 20 17 14 15 10 11 13 14 15 14 17 20 16 19 16 17 22 21 24 28 29 29 28 24 23 24 23 21 21 25 23 23 22 22 23 23 21 22 22 23 25 26 22 22 21 21 18 15 16 10 13 17 16 16 14 13 14 14 13 17 12 17 14 13 15 16 10 13 14 17 17 11 13 14 13 14 13 12 12 11 11 10 9 9 8 10 11 18 12
26 26 28 28 24 24 18 12 13 16 15 14 12 9 11 14 14 15 16 19 20 24 22 21 22 20 21 24 25 27 26 25 24 23 23 21 22 21 22 21 21 22 23 24 23 21 21 23 22 23 23 21 18 16 17 18 18 15 13 15 15 10 12 15 12 11 12 11 13 13 10 11 16 14 14 12 13 7 16 11 12 13 13 13 13 12 12 11 11 10 9 9 11 12 18 17 16
26 27 29 30 23 20 14 11 13 15 15 10 9 12 15 12 14 20 16 19 21 23 27 22 22 21 24 25 25 26 25 25 23 22 22 20 18 20 19 20 22 22 21 22 23 28 25 22 25 25 24 21 21 18 19 18 17 14 14 13 16 15 11 10 8 7 7 12 11 10 17 18 19 12 11 12 12 14 16 8 11 11 12 12 13 13 12 12 12 11 10 10 10 13 18 16 14
24 32 32 26 25 28 17 13 14 11 9 11 11 10 16 15 10 18 15 19 24 21 15 15 25 22 25 26 27 24 24 23 22 21 20 19 18 20 19 19 21 24 22 21 19 20 24 21 23 27 22 21 21 21 21 21 19 18 18 17 17 15 13 11 9 8 9 8 14 19 21 23 25 15 12 13 13 13 14 15 16 15 14 14 14 15 16 17 16 17 17 16 17 15 17 13 9
23 29 28 28 17 15 15 9 9 10 8 13 11 16 15 14 15 15 16 22 22 21 31 28 23 25 25 28 29 25 23 23 21 20 20 19 20 19 18 17 17 19 21 20 19 20 23 24 27 25 21 23 20 22 23 22 21 19 18 17 17 17 16 13 9 17 22 23 21 22 13 23 22 12 10 13 12 12 13 15 17 14 11 13 16 13 13 12 15 12 15 17 14 16 11 8 9
32 27 26 27 26 17 14 12 10 11 15 19 16 16 13 16 13 11 12 16 18 15 17 20 26 23 22 25 27 25 23 22 21 21 20 19 20 20 20 17 18 17 20 19 18 20 19 19 29 27 23 25 23 21 23 23 20 19 18 17 17 17 13 14 13 12 13 20 18 13 13 18 18 12 10 10 11 11 13 10 9 13 16 14 15 12 10 11 10 15 16 14 10 10 11 10 10
29 32 22 27 25 20 15 13 9 14 15 15 17 12 17 13 20 14 15 11 14 14 16 14 21 24 24 23 22 21 22 23 22 21 22 21 19 19 18 11 20 16 19 19 17 17 18 21 25 26 23 23 22 22 21 22 20 19 19 17 17 14 16 12 15 20 22 24 13 14 12 15 15 15 13 10 9 12 13 14 18 12 17 15 16 13 13 14 17 17 19 15 13 13 14 12 11
30 34 25 18 19 21 22 18 17 16 16 16 13 17 19 15 20 10 18 10 15 13 13 17 15 19 18 20 20 20 20 20 20 20 18 17 18 19 17 14 18 19 17 20 20 20 21 21 21 25 23 24 23 21 21 20 19 20 19 16 14 13 12 15 23 22 15 14 12 9 9 15 9 10 13 16 15 12 12 12 14 15 15 16 18 15 17 17 17 17 17 13 12 11 11 10 9
28 27 27 21 19 17 19 20 20 19 18 17 18 21 19 20 10 19 18 14 12 12 15 15 17 18 19 20 19 20 21 20 20 20 19 16 18 20 19 20 21 18 18 20 22 22 22 23 23 24 26 25 24 21 19 20 19 20 18 15 11 13 16 17 13 14 15 13 12 8 18 10 13 7 8 11 12 9 9 11 12 11 9 10 11 14 14 12 14 12 13 14 15 12 12 12 10
19 27 28 27 20 19 20 22 22 20 22 19 21 21 23 19 16 25 24 16 14 14 16 16 17 18 19 21 20 20 21 22 21 20 19 17 20 22 21 22 23 20 18 22 22 22 20 22 23 23 24 21 23 21 20 19 18 18 17 14 14 16 15 13 15 18 11 18 12 12 12 9 11 10 9 10 8 11 10 10 11 15 12 11 11 13 12 15 16 14 13 11 11 9 10 11 14
14 19 21 28 24 21 20 20 21 21 24 19 20 22 25 21 20 28 24 21 16 16 16 17 18 18 20 20 21 19 20 23 23 21 22 21 24 23 23 25 24 22 22 23 22 21 21 21 22 22 23 21 20 21 19 20 17 19 22 25 21 17 13 14 14 11 10 17 12 13 15 11 12 10 10 10 8 8 11 10 9 8 11 11 13 13 15 12 16 14 12 10 20 17 17 13 14
24 16 23 21 24 32 24 26 22 21 23 21 23 24 29 24 24 29 16 16 19 18 17 17 18 20 20 21 21 21 21 22 23 21 21 21 20 21 22 20 23 23 22 25 23 21 20 19 20 19 22 19 19 19 21 20 19 21 25 22 25 16 16 14 12 10 9 16 14 13 9 9 10 9 8 8 12 9 10 12 10 8 9 9 16 17 19 20 19 14 11 14 10 11 16 18 20
22 22 23 24 28 32 29 27 25 25 25 20 22 32 29 29 27 30 24 19 18 20 20 19 19 21 21 20 20 21 20 19 21 20 20 20 20 21 22 21 22 22 23 25 23 23 21 19 19 18 21 22 19 19 19 20 18 17 18 13 15 16 13 11 11 9 9 12 13 15 15 12 10 8 9 10 11 7 7 10 9 7 9 9 8 10 10 12 17 18 20 14 8 11 9 12 19
29 24 24 29 28 32 28 33 27 29 21 19 21 28 26 28 33 34 25 25 21 22 22 20 19 20 21 21 21 20 18 19 19 18 18 18 18 19 19 20 23 23 22 23 25 23 22 19 19 19 20 20 18 18 17 17 15 15 15 14 14 11 13 12 11 10 10 10 13 12 12 12 10 12 10 8 8 8 7 9 9 9 9 8 7 7 11 11 9 10 12 10 8 11 10 11 14
26 29 31 28 30 24 27 32 30 31 27 23 22 28 26 25 33 35 30 26 25 24 23 20 19 20 22 22 20 20 20 19 18 19 18 18 17 20 23 24 25 25 21 20 24 24 23 18 18 18 18 18 17 17 15 14 15 13 11 11 13 12 12 12 12 11 11 11 15 14 13 12 10 9 9 10 9 11 11 10 10 9 9 9 8 8 9 9 7 9 9 8 10 11 11 13 15
28 30 22 28 29 29 25 28 23 27 26 27 28 27 24 32 29 33 27 26 26 26 22 21 20 19 22 22 22 20 20 19 20 20 20 21 21 21 22 23 25 23 19 20 22 21 18 16 15 16 17 16 16 14 15 12 14 13 13 14 12 11 11 12 14 12 12 10 12 16 15 11 9 8 7 8 7 7 10 10 10 11 8 10 10 9 10 7 8 9 8 9 10 13 14 15 16
27 28 29 24 28 29 31 27 26 26 30 27 29 33 26 20 18 21 21 21 23 25 23 21 20 20 21 22 23 22 21 21 22 22 21 22 22 21 20 19 21 22 19 19 21 20 17 15 21 19 21 23 25 17 11 11 11 14 13 13 11 12 10 11 11 12 14 12 12 14 14 13 9 8 7 7 8 7 8 10 8 10 13 8 8 10 10 9 9 9 9 8 11 16 12 10 16
23 24 26 28 25 22 27 27 28 26 30 24 26 29 28 21 22 21 19 21 22 23 24 22 22 21 22 22 23 21 21 20 21 20 22 22 20 20 20 19 20 19 19 19 20 21 18 18 15 17 13 11 13 16 11 14 13 12 12 13 13 12 12 10 9 11 13 13 13 14 13 13 12 10 8 7 7 8 10 9 13 8 8 10 9 9 11 9 8 8 8 9 12 14 14 13 15
25 23 24 26 22 26 30 21 20 23 26 29 26 28 28 30 20 23 20 19 22 22 21 21 22 22 22 22 23 23 22 21 19 19 21 21 20 19 19 20 19 19 19 23 23 20 19 19 16 16 13 14 12 8 16 17 15 15 14 13 13 12 13 13 10 12 12 13 14 13 13 11 12 10 10 9 7 9 11 7 8 9 9 11 12 9 11 8 10 10 11 12 12 14 14 13 12
19 19 21 26 25 22 24 19 20 19 20 25 27 25 22 25 28 21 21 19 21 23 23 22 23 22 23 23 23 23 20 20 20 21 21 22 21 21 21 19 20 19 25 29 22 17 17 19 19 16 16 16 16 13 20 23 16 16 14 14 15 14 15 13 12 12 13 14 12 14 13 13 10 10 10 10 8 8 8 9 9 7 8 9 8 10 12 10 11 11 8 11 16 16 17 10 12
17 16 16 21 20 25 24 24 22 17 18 19 22 23 25 23 27 25 21 20 22 23 24 23 24 23 23 22 22 22 19 18 21 21 21 22 23 20 20 19 18 23 23 25 22 21 19 15 19 17 17 19 16 18 24 20 12 12 14 15 15 15 16 15 15 14 13 15 14 12 12 12 11 10 10 8 7 7 8 9 10 10 9 11 11 13 10 8 8 11 16 11 13 18 12 8 7
20 23 19 22 24 24 20 16 16 18 20 24 21 27 25 26 29 18 20 20 21 23 23 24 25 23 23 24 21 20 22 20 21 22 22 24 21 21 21 18 21 24 23 23 23 22 22 22 19 21 22 22 19 22 25 20 11 11 11 14 13 15 14 14 16 15 14 16 12 13 11 11 10 11 10 9 7 8 7 6 7 7 8 9 10 10 9 9 10 12 11 10 13 14 12 13 9
21 23 25 24 19 26 23 20 18 17 22 21 23 24 24 24 18 18 19 22 20 20 24 24 23 23 22 22 22 23 23 24 23 24 24 23 22 20 20 19 24 26 29 24 25 24 21 22 22 21 22 18 13 21 24 15 9 11 12 11 12 13 17 17 15 13 14 13 14 12 14 10 10 10 9 10 9 10 8 7 6 6 6 6 7 6 8 11 11 9 10 11 12 11 12 11 11
23 23 25 24 22 22 22 16 21 16 17 18 20 20 25 20 22 24 21 20 20 22 22 23 22 22 19 18 20 21 23 21 23 23 23 22 22 21 20 19 26 27 25 22 24 25 22 20 20 20 17 15 17 19 23 12 13 13 13 13 15 17 15 15 14 15 13 13 14 13 13 11 11 11 10 11 12 10 9 9 8 7 7 6 7 5 6 6 8 8 7 9 12 9 13 9 7
24 23 25 23 20 17 16 13 17 21 24 25 24 28 29 24 25 27 24 24 23 23 23 24 23 22 21 21 21 21 20 20 22 23 24 23 20 18 19 17 18 28 28 20 19 20 20 17 20 21 19 21 24 23 18 14 13 14 15 14 15 14 15 14 14 14 14 12 15 12 13 12 12 10 10 12 13 11 9 9 9 9 8 8 8 7 7 6 6 6 7 7 7 7 9 8 6
23 28 26 27 25 16 15 19 21 24 25 25 27 30 20 22 26 27 27 26 25 23 23 23 24 24 23 24 23 23 22 22 21 21 23 20 15 16 14 18 19 20 24 17 14 12 16 18 20 22 22 20 19 17 15 13 14 14 13 12 12 13 14 13 13 11 12 14 13 12 13 10 12 11 11 11 11 11 11 10 10 10 10 9 10 10 9 9 10 10 9 9 8 8 6 8 9
29 14 28 25 23 17 18 21 21 22 9 9 19 29 23 24 26 26 26 27 28 25 22 23 26 23 23 21 22 21 23 20 21 20 23 24 11 11 21 22 20 25 23 17 15 12 13 16 19 20 18 18 17 16 13 14 16 15 13 12 12 13 13 15 13 12 12 13 14 13 13 11 11 12 10 11 11 11 11 11 11 11 8 10 10 12 11 12 11 11 11 10 9 11 11 10 12
20 15 19 23 24 20 20 25 24 20 15 22 23 25 27 21 24 24 26 27 27 24 20 21 24 22 23 20 22 19 20 21 19 20 25 26 22 20 17 20 20 22 25 23 15 13 18 15 16 16 17 15 16 15 14 14 14 15 14 14 13 14 16 15 14 13 13 13 11 10 11 14 11 10 12 10 10 11 10 12 10 10 10 8 9 11 11 13 12 12 13 12 11 9 10 10 9
13 17 16 21 22 23 22 24 26 17 22 21 22 25 27 20 22 23 23 26 27 24 19 19 19 22 24 22 19 20 19 17 18 22 25 27 25 21 18 19 22 20 20 18 17 15 18 16 17 18 18 16 13 14 14 14 12 14 12 12 13 16 15 15 14 14 14 12 12 11 12 13 14 12 10 11 11 11 10 10 11 11 11 11 13 12 10 13 13 13 13 14 12 12 11 12 10
13 14 20 20 20 20 20 24 20 17 22 24 18 20 25 23 25 30 32 29 20 20 20 20 21 19 21 17 17 17 17 16 22 23 23 25 23 19 17 19 26 29 25 28 22 19 20 19 21 20 15 15 17 16 16 18 11 11 10 12 14 15 14 14 15 14 15 13 14 13 12 14 14 14 12 11 10 12 11 11 10 12 12 11 12 12 12 12 12 12 13 13 15 13 11 10 10
17 23 25 22 23 22 22 25 21 21 22 20 20 20 20 24 20 25 28 19 20 26 25 23 22 24 23 21 23 22 20 18 20 19 20 20 20 19 19 22 27 26 25 24 21 25 24 21 23 23 20 19 17 16 12 8 11 11 6 10 13 14 14 15 15 15 15 15 14 14 14 14 14 14 12 12 11 11 11 11 11 12 12 11 12 12 12 13 12 13 13 14 15 14 13 12 11
24 23 26 25 21 20 25 24 24 26 21 17 20 20 22 25 16 17 20 22 17 15 22 27 28 26 24 23 28 25 22 19 21 19 18 19 20 21 19 22 25 24 24 21 24 24 22 24 27 26 24 23 22 18 17 14 8 9 7 9 11 13 14 14 15 15 15 15 15 15 15 15 15 14 13 13 12 11 12 11 11 11 12 12 12 13 12 12 12 13 14 14 14 15 16 14 15
27 28 26 25 24 22 19 24 21 24 22 12 18 15 24 17 19 20 18 15 16 16 17 17 21 19 21 20 26 27 22 19 20 19 18 18 19 21 20 21 22 21 21 24 22 19 19 23 24 26 25 23 23 22 19 16 12 8 8 9 10 12 13 14 15 16 15 15 15 15 15 15 15 14 14 13 13 13 14 13 12 12 12 12 13 13 13 13 12 15 14 14 14 14 14 13 14
30 24 27 21 20 25 19 24 22 21 19 21 18 18 23 24 21 14 18 13 14 15 21 21 24 26 28 28 29 24 23 24 17 17 16 15 16 20 20 20 19 20 20 22 21 19 19 21 21 24 25 23 24 23 19 17 14 10 8 9 11 11 13 15 15 15 14 14 15 15 15 15 16 16 15 14 13 13 12 12 12 12 12 12 12 11 13 12 12 15 15 13 14 14 14 14 15
26 27 24 26 21 16 24 11 16 15 14 16 19 21 12 17 24 21 18 16 16 16 17 19 21 23 21 23 24 26 29 24 22 20 17 14 15 15 18 18 17 19 21 21 21 21 19 20 21 22 24 21 17 19 20 20 17 13 11 12 12 11 11 13 14 15 14 13 14 15 16 15 16 16 16 15 13 13 13 13 13 13 12 12 12 12 12 14 12 13 14 13 13 13 12 12 12
23 28 30 23 18 19 16 11 11 6 13 18 10 23 19 25 25 22 24 19 17 16 17 17 18 19 17 22 24 25 25 23 21 19 16 19 20 14 13 15 16 16 17 18 18 18 17 17 16 18 19 16 16 15 17 17 17 15 14 14 13 12 12 12 14 14 14 13 12 13 15 17 16 16 16 14 14 13 12 12 13 13 12 12 12 12 13 13 12 13 14 13 13 13 12 13 12
21 30 23 17 11 17 15 15 15 18 22 19 18 16 20 22 23 28 28 23 19 17 17 17 17 18 20 20 21 23 21 21 18 20 21 24 24 21 16 13 13 13 16 16 17 14 15 16 17 19 19 19 18 17 17 16 17 16 15 15 13 12 13 13 13 15 15 14 13 13 14 18 17 17 17 15 14 13 13 12 13 13 12 11 11 12 14 13 12 13 13 13 13 11 12 12 12
26 17 19 29 20 21 20 16 18 13 19 22 17 19 24 21 19 27 26 23 20 19 18 18 19 18 19 21 21 21 22 23 24 24 24 24 23 18 16 12 13 13 12 14 17 15 16 16 18 19 19 18 17 17 17 14 15 15 15 14 15 16 14 14 14 15 15 15 14 14 14 16 17 18 18 16 15 15 14 13 12 13 13 13 12 12 11 12 13 13 12 13 11 11 12 12 12
25 19 23 19 23 17 17 23 18 22 16 16 16 22 22 15 16 18 19 22 21 19 18 18 20 19 19 20 22 22 22 22 22 22 23 25 25 24 23 15 13 13 14 13 14 14 15 14 14 14 15 15 16 17 17 17 17 16 13 15 16 17 17 17 16 16 16 16 15 14 14 14 15 15 17 18 17 16 15 14 13 13 13 13 13 12 12 12 11 11 11 13 11 10 12 11 10
30 31 29 23 24 11 20 15 26 21 19 18 18 21 20 19 21 16 20 24 22 19 20 19 19 20 20 21 21 19 18 20 21 22 23 23 21 21 20 17 16 15 15 16 16 15 15 15 14 16 16 16 16 14 14 14 16 16 15 16 17 19 18 17 17 17 16 15 13 13 13 12 15 14 16 17 18 18 18 16 16 15 14 13 13 12 11 11 11 11 12 11 10 11 12 13 11
27 30 30 28 22 23 22 24 19 24 23 19 14 20 19 13 20 17 19 18 20 20 20 21 20 21 21 21 19 18 19 19 19 19 19 19 20 21 20 19 19 17 17 15 17 16 16 16 19 18 17 17 16 17 16 14 14 16 15 17 18 15 17 17 17 18 16 16 15 14 13 14 14 16 16 17 18 18 17 17 17 17 15 15 15 14 12 12 13 12 11 10 10 10 11 11 8
Wind_Speed
8 9 7 7 7 8 7 7 9 8 8 12 11 11 10 10 11 3 6 5 7 5 1 1 7 3 9 5 7 8 14 9 7 6 5 4 7 10 11 17 17 18 16 15 14 14 14 14 14 15 14 15 16 17 18 18 18 17 17 17 16 16 16 16 16 15 13 14 14 14 13 13 13 12 10 9 7 7 9 10 10 9 9 9 10 9 10 10 10 11 11 11 10 11 11 11 11
8 7 6 6 8 7 8 8 7 7 10 11 13 11 12 5 1 10 12 2 7 4 1 2 3 5 3 4 6 3 11 11 11 9 7 7 10 9 17 17 16 17 15 14 15 13 13 15 13 14 15 15 17 17 16 17 17 17 17 17 16 16 16 17 15 14 14 14 14 14 13 13 13 12 11 10 9 8 7 6 7 9 8 9 9 9 9 8 10 10 11 10 11 10 11 11 11
7 6 7 7 7 9 6 8 10 10 10 11 10 12 10 5 7 7 1 2 3 1 3 2 1 4 7 3 9 5 7 11 12 12 9 9 11 11 17 16 15 16 15 14 14 13 12 14 13 14 15 16 16 16 15 16 17 17 17 17 16 16 16 15 15 15 14 14 14 13 13 13 13 12 12 10 9 8 6 6 8 9 8 9 8 9 9 8 9 9 10 10 10 11 10 11 11
11 8 7 7 7 7 7 7 10 11 10 9 7 15 12 6 4 8 2 2 2 3 3 7 8 4 7 8 7 9 8 9 10 10 7 7 8 10 15 17 16 14 13 12 14 13 12 15 13 14 15 16 16 15 16 17 16 17 16 16 17 17 16 15 15 15 14 14 14 13 12 12 12 12 12 11 9 8 8 7 8 9 8 8 8 9 9 8 8 8 9 10 10 11 10 11 11
8 7 9 8 8 8 7 8 10 10 12 8 7 6 2 6 4 9 6 3 1 5 4 2 3 1 5 6 1 2 6 8 8 9 8 7 11 11 15 16 14 13 14 15 14 13 14 18 14 14 14 15 15 14 15 16 17 17 17 18 18 17 17 16 16 15 15 14 13 12 12 12 12 11 12 10 8 9 10 9 8 9 8 7 7 8 7 6 8 8 8 9 10 10 10 10 10
9 7 8 8 8 6 7 9 10 12 12 10 10 8 5 4 10 1 1 5 5 6 6 3 5 9 7 7 6 5 4 3 8 9 8 9 13 14 15 15 13 13 14 13 14 13 14 16 15 13 13 15 15 15 16 16 16 17 17 18 18 18 17 17 16 15 14 13 12 12 12 12 13 12 11 10 10 11 12 10 10 9 8 9 9 8 8 7 7 8 8 9 11 10 10 10 10
7 8 7 8 9 7 8 10 11 10 11 14 11 3 2 4 3 3 7 5 6 8 6 8 5 5 4 6 10 7 8 6 4 8 9 12 14 14 13 13 13 15 15 13 13 15 18 15 14 14 14 14 15 15 15 15 15 16 17 17 17 18 18 16 14 14 13 12 12 12 13 13 13 13 11 9 10 12 12 10 9 9 9 9 8 9 9 8 7 8 8 10 10 11 9 9 9
7 9 7 9 7 7 10 11 12 9 8 13 9 2 2 3 2 5 4 5 8 10 11 8 6 10 7 9 5 7 9 8 10 11 13 13 14 13 11 11 13 13 14 13 11 14 18 15 15 15 15 14 16 15 15 14 14 15 15 16 15 15 15 15 14 13 12 12 12 12 12 13 12 12 12 11 10 10 11 10 10 9 9 7 8 8 8 8 8 9 9 11 11 10 9 8 7
8 11 4 9 10 7 9 11 11 12 7 6 7 6 6 7 7 7 6 6 5 7 7 9 8 10 8 7 7 7 6 8 11 11 13 14 14 13 8 11 12 12 13 11 13 14 15 15 14 14 15 17 16 15 14 14 13 14 15 15 14 14 13 14 14 13 13 11 12 11 13 13 11 11 11 10 9 10 11 12 11 10 10 8 8 7 8 8 9 10 10 11 11 10 9 7 6
8 8 8 8 8 11 10 10 11 10 14 5 1 4 3 2 6 8 9 6 9 4 8 8 8 9 13 11 8 5 6 9 12 12 12 13 13 11 11 10 11 13 14 12 12 14 13 16 13 14 14 15 15 14 14 13 13 13 13 13 12 12 12 11 11 12 12 12 13 14 12 13 12 10 10 10 8 10 12 12 12 11 10 9 9 8 8 9 10 9 10 11 10 9 8 7 5
8 8 8 9 10 10 11 9 10 11 10 4 6 2 2 3 6 8 8 10 6 9 8 9 8 8 9 10 6 5 8 10 12 13 13 12 12 11 10 11 13 16 14 12 14 13 14 15 16 13 13 13 13 13 12 12 12 11 12 11 12 12 11 11 11 11 11 10 12 14 15 11 11 10 10 9 8 10 12 12 12 11 11 10 9 9 9 10 10 9 9 9 9 8 6 6 4
9 9 8 10 10 10 9 10 10 10 6 4 7 6 4 6 3 7 9 11 8 10 8 7 7 8 11 10 5 6 8 11 11 12 12 13 11 12 12 9 14 16 12 10 13 13 13 14 14 14 13 12 12 12 12 12 11 11 11 11 11 11 11 11 11 10 11 12 12 17 16 13 11 10 10 11 9 11 12 12 12 11 11 11 10 10 10 10 10 10 10 8 7 5 5 4 4
11 8 9 9 9 10 10 11 8 5 3 6 8 8 1 8 8 7 7 8 10 10 10 11 2 8 6 5 7 7 9 12 11 11 13 12 11 10 11 12 14 15 13 13 15 16 16 15 13 14 14 13 12 12 12 12 11 11 11 11 12 12 12 12 11 10 10 11 13 17 17 15 14 11 11 10 12 11 12 11 11 11 11 11 11 11 10 10 10 10 10 9 7 6 5 5 4
10 9 8 10 10 12 11 8 9 9 8 11 4 5 1 5 2 6 6 10 9 11 6 9 1 12 12 6 6 6 9 10 13 13 12 12 10 12 13 13 13 11 11 13 12 14 14 14 13 13 13 13 12 12 11 11 11 11 11 12 12 12 12 12 11 11 11 11 13 16 16 15 15 13 11 11 13 11 10 11 10 11 11 11 11 10 10 9 10 9 9 8 7 6 5 6 4
11 8 8 9 10 11 10 10 7 7 9 7 8 4 5 4 5 8 10 9 13 1 10 6 5 7 5 8 7 10 11 12 12 12 11 12 12 12 15 11 9 10 9 8 12 14 13 13 14 13 13 10 11 10 9 11 12 11 11 12 13 13 13 13 13 13 12 12 13 14 15 16 13 12 12 12 11 10 10 11 10 11 11 10 10 10 9 9 9 8 8 7 6 5 3 4 2
9 8 8 9 11 11 7 10 10 6 1 5 8 3 7 3 5 8 8 9 4 5 5 5 2 3 9 11 9 15 16 14 14 12 11 12 13 12 14 12 8 9 10 11 11 12 13 14 13 13 11 11 9 8 9 10 11 12 12 13 13 12 12 12 11 11 12 12 12 12 13 12 13 11 13 11 12 10 10 9 11 11 11 11 10 10 9 8 8 8 7 7 6 5 3 1 2
8 8 9 10 12 11 7 7 8 9 6 2 3 2 8 3 6 5 4 8 7 8 8 7 6 6 9 6 14 21 16 14 13 14 12 11 11 11 11 10 10 9 9 11 10 11 12 13 15 11 11 12 9 8 6 5 6 10 8 11 11 11 11 11 12 10 10 11 10 9 9 9 6 7 9 8 11 9 7 10 11 11 11 10 10 9 9 8 8 7 8 6 7 6 5 3 3
7 9 10 11 10 12 7 8 5 2 4 6 2 2 5 6 6 4 6 9 8 8 7 8 12 12 13 14 18 18 17 15 15 15 13 11 9 11 10 9 10 9 10 8 10 10 11 11 14 12 9 8 9 6 8 5 4 4 7 6 9 9 8 8 8 5 8 7 9 8 4 6 1 3 4 9 7 9 10 9 10 11 11 11 10 9 9 9 8 7 6 7 6 8 8 7 6
10 9 11 12 10 10 9 3 4 3 3 6 4 2 4 4 6 4 7 11 9 11 10 9 10 10 13 12 15 16 17 14 14 14 14 14 11 12 10 9 9 10 10 11 9 11 9 10 11 12 9 9 10 8 6 9 11 5 7 8 7 6 6 6 1 7 3 6 7 6 4 5 4 6 3 5 6 6 9 9 10 10 10 10 10 9 9 9 8 7 6 6 8 10 8 7 6
12 11 12 13 12 10 5 4 5 6 7 3 2 5 7 4 6 10 6 9 8 12 7 10 8 10 10 14 15 16 15 16 15 13 13 12 11 11 11 11 11 9 11 10 9 8 10 9 13 10 13 10 11 6 8 8 7 7 7 6 7 6 4 4 3 2 2 6 5 4 4 6 5 4 6 7 8 7 8 7 9 8 9 9 10 8 8 8 8 8 8 8 8 7 7 6 5
9 13 12 11 13 15 8 5 6 4 2 4 4 2 8 7 3 7 7 8 12 10 7 6 10 11 9 14 15 14 15 14 13 13 12 12 11 9 9 8 9 10 5 7 8 10 11 10 9 12 12 8 11 10 10 10 9 8 8 7 7 6 5 5 3 1 2 1 3 4 5 10 6 5 5 5 5 5 7 7 6 5 6 6 10 6 6 7 7 6 6 7 7 6 7 6 3
9 14 16 16 8 5 7 1 1 2 1 5 4 7 6 6 7 8 4 10 7 8 16 14 14 11 13 16 17 15 14 14 13 13 13 11 12 10 9 7 9 9 11 5 8 9 13 13 14 11 12 13 10 10 11 10 11 8 8 7 8 7 7 5 4 2 2 5 3 7 6 12 4 2 4 6 5 5 5 6 6 4 5 5 7 4 4 4 6 5 6 7 6 7 5 1 3
12 13 15 15 15 7 6 4 3 3 7 10 7 6 5 8 5 3 5 4 7 3 9 12 7 13 12 15 16 16 15 14 13 13 12 12 12 11 10 6 2 6 8 9 7 6 7 10 17 11 11 13 11 11 9 10 9 8 8 8 7 7 5 6 4 3 2 5 8 4 5 9 4 4 3 3 5 4 4 3 2 1 4 3 4 4 3 3 1 2 4 6 4 4 4 4 3
14 12 11 15 15 10 8 3 2 6 7 6 8 5 7 5 11 6 7 4 7 5 8 6 13 16 14 13 13 13 14 14 13 13 14 12 11 11 8 5 10 6 8 8 9 8 6 9 15 14 11 12 8 10 10 9 8 9 9 8 6 6 7 4 4 1 7 12 6 7 5 5 6 6 3 3 3 4 5 7 5 3 7 4 4 5 3 5 4 4 7 7 6 5 5 5 4
15 15 15 9 10 11 12 10 8 7 8 7 6 8 11 7 10 2 9 3 7 6 4 10 6 11 8 12 11 11 13 13 13 12 10 9 10 10 9 7 10 9 8 11 9 10 11 10 12 15 13 14 12 10 9 7 8 8 8 7 6 7 5 5 4 9 7 8 4 2 3 4 1 4 5 5 3 3 0 4 5 6 5 5 6 4 5 3 6 8 8 5 5 4 4 3 3
13 14 15 12 9 9 9 11 11 11 6 8 9 11 10 11 3 8 10 6 6 4 8 8 8 9 9 11 11 12 12 12 11 12 11 8 10 12 8 8 7 10 8 10 10 9 9 11 12 14 15 13 12 11 9 8 8 9 9 5 5 5 4 3 5 3 7 4 4 3 9 2 2 1 1 4 4 0 2 4 1 3 3 2 4 4 5 3 5 5 3 5 6 5 2 4 4
9 17 17 16 11 10 10 12 12 11 10 11 11 11 13 11 4 9 14 7 7 7 8 8 8 9 9 10 11 12 12 12 13 10 10 9 10 12 10 10 11 10 10 11 10 10 9 10 12 11 12 11 10 10 10 9 8 7 8 5 5 5 4 4 7 8 5 6 3 6 5 1 1 1 1 3 1 5 2 1 4 5 2 3 3 3 0 4 5 7 5 4 5 0 2 2 4
5 8 11 17 15 11 11 11 12 10 11 10 9 12 13 13 9 12 13 12 8 9 8 8 9 9 10 11 11 11 11 13 11 12 13 13 10 11 13 11 12 12 11 12 10 9 9 10 11 13 13 10 9 11 9 8 8 8 6 3 2 2 5 5 6 3 3 4 5 7 2 1 1 2 3 1 3 3 4 2 1 2 1 2 4 5 7 3 8 2 2 3 10 8 8 6 3
14 9 11 12 15 14 14 13 12 12 9 11 12 13 16 12 13 17 4 8 11 10 9 9 9 9 10 11 10 10 11 12 12 11 12 11 11 11 13 12 12 12 9 11 9 10 11 10 9 9 9 11 9 10 7 8 6 6 5 7 8 7 7 7 4 3 3 5 6 5 1 2 1 2 1 1 2 3 3 4 1 1 2 2 2 2 1 4 7 7 6 7 2 2 3 4 9
11 12 10 12 13 15 18 15 15 14 11 12 11 12 13 15 14 17 12 9 9 11 11 10 9 9 10 10 9 10 10 10 12 11 11 11 11 12 13 12 13 11 9 10 9 9 8 6 7 7 9 9 11 10 10 7 6 8 10 5 8 7 4 3 3 2 2 5 5 7 3 2 2 1 1 1 3 3 2 2 2 0 1 2 2 2 0 2 4 4 3 1 2 3 3 4 2
12 12 11 11 11 12 16 16 16 17 11 11 11 11 11 15 19 20 15 15 12 12 12 11 9 10 10 10 10 11 9 9 11 10 11 11 11 10 11 11 13 11 10 11 11 10 10 8 7 7 7 8 6 9 8 9 7 6 5 5 3 4 4 4 2 2 2 3 5 5 5 3 3 4 3 1 2 1 2 3 2 2 2 2 2 2 2 1 3 3 4 3 3 3 4 3 4
10 11 13 12 13 10 14 19 19 16 12 14 12 11 10 14 17 22 19 15 14 14 13 11 10 10 11 10 10 10 10 11 11 11 11 11 10 10 12 13 13 14 13 11 11 11 9 6 5 7 8 7 7 7 6 6 7 5 4 5 5 3 4 4 4 3 3 4 5 4 6 5 4 3 3 2 1 4 3 2 1 1 2 1 2 1 0 1 1 2 2 2 1 1 1 4 3
11 12 11 12 12 13 12 17 14 16 12 16 16 10 10 16 16 21 17 16 16 15 12 12 11 10 11 11 10 9 10 11 11 12 12 12 11 11 12 12 12 14 11 9 11 10 10 6 2 8 3 3 4 5 7 5 6 5 6 6 6 5 5 4 3 3 3 3 5 7 6 4 3 2 3 3 2 1 3 3 2 3 1 1 1 1 1 0 1 2 1 3 4 1 2 5 4
10 12 12 11 14 14 13 16 15 15 18 13 17 14 14 0 9 10 11 12 14 14 13 12 10 9 11 10 12 11 11 11 12 12 12 13 11 13 11 12 13 13 9 10 10 7 6 7 7 8 9 8 10 8 1 3 2 6 6 5 5 5 4 4 4 4 5 3 5 5 6 5 4 3 2 2 1 1 2 4 2 2 1 2 1 2 2 1 1 2 2 2 3 2 3 3 4
9 10 11 12 13 13 15 10 14 15 19 13 14 16 16 10 12 10 11 12 12 13 12 12 12 11 11 11 11 11 11 11 11 11 13 13 12 12 10 10 10 9 5 10 11 12 7 5 6 10 6 7 6 6 3 7 5 4 5 5 6 5 4 3 2 4 5 4 5 5 6 5 5 4 3 3 1 2 2 3 6 2 2 2 2 1 2 2 3 2 2 3 4 4 4 3 4
13 13 11 13 10 10 12 10 10 13 14 15 15 13 15 17 10 13 10 10 11 12 12 11 11 11 11 11 12 11 11 11 10 11 13 12 10 10 9 8 8 9 10 12 13 11 10 8 9 8 6 7 7 1 4 3 6 4 5 5 5 4 5 4 4 5 4 4 5 5 5 4 4 4 4 2 2 3 1 1 3 4 4 4 3 3 3 2 3 4 4 4 5 6 6 5 4
10 9 11 12 11 10 12 11 11 10 10 13 15 14 12 15 17 11 12 10 12 13 13 11 12 11 11 11 12 12 11 11 11 12 12 12 11 9 8 8 7 12 15 15 9 10 10 9 9 8 8 9 8 7 2 9 6 4 4 5 5 5 5 5 4 4 5 4 5 6 6 5 4 4 3 3 2 2 2 4 4 2 2 4 2 0 5 4 2 2 1 3 6 6 5 3 4
8 7 7 8 10 11 13 12 12 7 8 8 11 13 15 12 11 15 12 11 12 14 14 13 13 12 11 12 13 12 9 7 10 11 12 12 10 10 10 8 11 14 10 11 12 12 11 8 9 9 9 8 8 7 6 10 5 3 5 5 5 5 6 5 5 5 5 5 5 5 5 5 5 4 4 3 2 2 2 3 4 4 2 4 6 7 5 3 3 2 3 3 4 6 4 2 3
11 10 7 9 9 11 11 7 7 7 9 10 11 15 12 12 17 8 10 11 10 12 13 13 15 13 12 13 11 11 9 9 12 12 12 12 12 11 9 9 11 14 10 13 14 13 14 13 10 10 9 9 8 7 3 10 3 4 4 4 5 5 5 5 6 6 5 6 5 5 5 4 4 4 4 3 2 3 2 1 2 2 2 3 3 3 1 1 1 6 5 3 4 5 1 5 1
9 10 10 9 7 11 8 6 8 7 7 9 12 12 10 13 10 9 10 11 10 12 14 14 13 13 12 11 12 12 12 10 13 13 13 13 11 10 9 8 14 14 12 12 14 11 10 12 11 9 7 5 4 4 4 9 3 3 5 5 5 5 7 7 6 6 6 6 6 5 5 4 4 4 3 3 3 4 2 2 2 1 0 0 2 0 2 6 6 2 5 5 5 3 4 5 6
11 12 12 10 12 11 9 5 10 9 9 10 10 7 10 9 9 10 10 11 11 11 13 13 12 12 10 10 11 11 13 12 12 13 12 11 11 10 9 9 15 14 9 11 13 11 7 10 11 11 9 8 5 6 9 6 5 6 6 7 8 8 6 5 6 5 5 5 5 5 5 4 5 5 4 4 5 4 4 3 3 2 2 0 0 0 0 1 2 3 3 2 3 3 2 3 2
10 14 15 14 11 8 8 4 6 6 9 11 13 9 11 12 14 12 10 10 12 11 12 13 12 11 11 11 12 11 11 11 11 12 12 10 9 7 6 9 9 15 9 9 11 10 9 8 10 10 9 6 8 10 10 6 5 6 6 6 6 5 6 5 5 5 5 4 5 5 5 4 5 4 4 5 5 4 3 4 4 3 3 2 2 1 1 0 1 1 1 1 1 1 1 2 1
10 11 16 17 15 9 8 10 10 9 9 11 15 12 5 9 13 14 12 12 13 11 13 13 10 11 11 11 11 11 10 10 9 8 9 5 5 5 3 10 11 12 5 6 6 4 7 9 9 9 9 7 8 8 8 6 6 6 6 6 5 5 5 5 5 4 4 5 5 5 5 4 5 4 5 4 4 4 5 4 4 4 4 3 3 4 3 3 3 3 2 2 2 2 1 1 2
11 6 17 15 14 7 9 9 10 8 3 1 10 11 9 9 11 14 15 15 16 14 12 11 11 12 11 10 10 10 9 7 8 9 12 4 4 7 14 14 12 15 12 9 6 2 5 9 10 9 5 5 8 7 6 5 6 6 6 6 6 6 6 7 6 5 5 5 5 5 5 4 5 5 4 4 4 4 4 4 5 4 2 3 3 4 4 4 4 4 4 3 3 4 5 3 2
7 3 9 13 14 11 10 11 10 9 5 8 9 13 10 3 5 13 15 15 16 14 11 11 12 8 7 11 11 10 9 9 9 6 12 8 11 8 10 11 12 12 5 6 6 5 9 6 5 5 10 7 7 8 6 7 5 6 5 6 5 6 7 6 6 5 5 5 5 4 5 5 5 4 5 4 4 3 3 5 3 4 4 3 2 4 5 6 6 6 6 5 5 4 4 2 2
5 8 8 10 12 13 12 10 12 7 8 9 9 12 9 8 10 10 12 14 14 12 10 9 6 5 13 10 9 7 5 7 9 12 15 14 10 7 8 12 14 11 7 6 5 9 11 9 7 7 4 3 3 6 5 4 7 4 5 5 6 7 6 6 6 6 6 5 5 5 5 5 5 4 4 5 4 3 3 3 4 5 5 5 6 5 4 6 6 7 7 7 6 6 4 5 4
5 7 8 8 8 7 7 9 7 5 8 10 10 11 11 8 11 9 10 10 9 8 7 7 12 10 6 6 8 8 7 7 11 13 14 15 11 5 9 12 17 18 14 17 12 11 10 12 10 10 8 7 7 6 6 3 5 5 3 5 6 7 7 6 7 7 6 6 6 6 5 5 5 5 5 4 4 5 5 5 4 5 5 4 4 4 4 4 5 6 6 7 8 7 5 5 5
8 8 10 8 9 9 9 9 9 6 7 10 11 10 11 9 8 11 13 8 10 8 10 10 9 12 9 9 5 5 6 4 10 9 11 12 12 10 11 14 17 16 13 11 9 10 12 12 11 13 12 11 9 8 7 4 2 6 1 4 6 6 7 6 7 7 7 7 6 6 5 6 6 5 5 5 4 5 4 4 5 5 5 5 5 5 5 6 5 5 6 6 7 8 7 6 5
9 10 11 11 6 5 7 8 8 8 6 7 10 10 8 11 6 8 11 11 8 6 11 15 16 15 13 10 6 6 8 7 7 8 8 10 11 11 11 14 16 15 14 13 15 14 13 14 16 15 14 13 12 11 10 8 3 2 2 4 5 5 6 7 7 7 7 7 6 6 7 6 6 6 5 5 5 4 4 4 5 5 5 5 5 5 5 5 5 6 6 7 7 8 7 7 7
12 11 10 10 7 7 7 9 6 8 10 2 6 6 9 4 5 11 7 7 6 6 9 7 8 7 7 10 11 10 7 9 8 7 8 8 10 11 11 13 12 11 12 14 12 10 10 13 13 16 15 13 13 12 11 10 7 4 2 4 5 5 5 7 6 7 7 6 6 7 7 6 6 6 6 6 5 6 5 6 6 6 5 6 6 6 6 6 5 6 7 7 7 7 7 7 7
12 12 11 8 6 6 7 8 7 7 7 9 10 5 5 11 7 6 10 5 4 7 11 10 10 8 11 15 16 15 12 9 8 8 8 8 9 12 11 10 11 11 10 10 11 10 10 12 12 14 15 14 15 14 11 10 8 6 3 3 5 4 5 6 6 6 6 6 6 7 6 6 7 6 6 6 6 6 6 6 6 6 6 5 5 5 5 5 6 6 6 6 6 6 6 7 7
11 11 10 11 7 5 9 1 5 5 4 5 7 4 3 1 5 4 6 4 5 7 9 12 13 13 12 12 13 13 12 11 8 8 7 6 7 7 9 9 8 9 12 12 13 11 11 11 13 14 15 13 10 11 12 12 10 7 5 5 5 6 5 5 5 6 6 6 6 6 7 7 7 7 7 6 6 6 6 6 6 6 5 5 5 5 5 5 5 6 6 6 6 5 6 7 6
7 11 12 9 9 8 5 4 3 3 4 5 1 7 5 10 11 8 5 3 4 6 7 7 7 7 9 11 13 14 13 11 11 9 6 11 12 7 3 8 8 8 9 10 10 10 8 8 9 9 9 8 8 5 7 8 10 9 8 7 6 6 5 5 6 7 7 6 6 6 6 7 8 7 7 6 6 6 6 6 6 6 5 5 5 5 5 5 5 6 6 6 6 6 6 6 5
4 10 9 8 2 7 4 4 5 6 7 5 7 6 9 9 5 14 14 13 10 8 8 8 6 7 8 9 11 12 11 12 10 10 12 14 11 10 7 4 5 5 7 7 8 8 8 8 8 9 9 8 7 7 6 8 9 8 8 8 7 5 6 5 6 7 7 6 6 5 5 7 8 8 7 6 6 7 6 6 6 5 5 4 5 5 6 6 5 5 6 6 6 5 5 5 5
12 5 0 9 6 9 7 3 5 5 6 5 6 7 8 7 5 11 15 13 11 10 8 9 8 9 10 10 12 12 13 12 13 13 13 12 11 9 8 5 7 6 6 7 8 8 9 9 11 11 11 10 8 7 7 6 7 6 6 7 7 5 5 6 7 7 7 7 7 6 6 6 8 8 8 7 7 7 6 6 6 6 5 5 5 5 4 5 6 5 5 5 5 5 5 5 5
15 9 9 8 9 5 5 5 6 7 6 5 6 10 5 4 1 10 5 12 9 9 9 8 9 10 9 9 10 11 12 12 11 12 12 13 13 11 12 8 7 7 7 7 8 7 9 6 8 9 9 9 8 8 7 8 6 6 6 7 5 5 7 8 8 7 7 8 7 7 7 7 7 7 8 9 8 7 7 7 6 6 6 5 5 4 4 4 4 4 5 5 4 4 5 5 4
12 11 11 8 7 3 6 3 10 7 6 5 5 7 4 5 9 5 9 13 10 9 11 9 9 10 11 12 11 9 10 11 11 12 12 12 12 12 10 9 8 8 6 6 6 8 7 7 8 9 9 9 7 7 7 7 7 7 8 7 8 9 10 8 9 9 8 8 6 6 6 6 7 7 7 8 8 9 8 7 7 7 6 6 5 5 4 4 4 4 4 4 4 5 5 5 5
11 11 12 12 9 10 9 8 7 9 6 5 3 3 7 5 8 6 10 9 10 11 10 10 11 12 12 11 10 10 9 10 10 10 10 10 11 10 11 9 9 8 8 7 6 7 8 8 9 8 8 8 7 6 6 7 7 8 9 9 9 7 8 7 9 9 8 8 7 7 6 6 6 7 7 8 9 8 8 8 8 7 7 6 6 5 5 4 5 5 4 3 3 3 5 4 3
Wind_Direction
234 222 226 233 239 242 226 205 234 197 234 242 253 230 247 216 244 329 230 119 249 166 144 267 226 234 259 348 320 13 35 35 25 312 58 130 134 126 139 129 133 132 133 136 129 138 137 132 131 130 131 131 131 130 131 131 127 126 128 128 122 114 114 119 123 128 129 129 128 128 127 126 124 125 124 121 114 124 129 134 142 139 135 132 127 121 126 128 126 116 114 110 111 107 102 101 96
219 215 225 228 231 229 210 216 250 219 210 244 238 254 243 194 171 238 246 274 12 61 351 249 193 238 307 260 304 269 68 63 67 84 90 122 132 134 111 130 135 132 131 134 137 139 138 137 129 129 132 132 132 131 129 129 129 129 130 128 123 120 121 126 129 132 131 132 133 133 130 128 127 126 125 120 105 96 101 121 133 122 116 119 121 126 124 124 126 123 119 116 112 108 105 106 103
215 213 201 216 230 236 278 198 237 244 224 223 235 229 232 151 232 208 227 39 41 31 226 114 313 208 199 243 214 273 87 65 73 85 104 148 127 123 128 127 129 129 132 133 139 140 136 138 133 132 134 134 134 131 122 125 127 127 127 125 123 123 126 130 132 133 135 134 135 135 134 131 131 129 126 120 111 106 98 92 108 115 119 121 124 129 130 132 127 127 118 117 112 110 109 106 101
285 222 211 195 206 213 239 213 242 247 241 242 248 217 214 211 215 83 77 37 153 241 197 179 207 58 277 214 60 84 83 65 76 101 129 146 130 130 128 122 126 132 133 140 142 142 138 138 133 135 135 135 133 130 125 123 123 123 123 124 125 128 131 134 136 137 138 138 138 136 134 131 131 131 129 127 119 116 112 105 113 119 118 127 134 135 135 134 128 125 123 119 116 109 113 108 101
246 214 250 216 259 206 232 233 233 237 252 248 244 67 194 187 186 135 123 210 151 243 226 129 251 115 60 9 347 141 85 85 96 98 99 94 123 140 129 130 134 140 140 142 142 137 134 138 135 134 135 135 133 127 125 124 125 126 126 127 129 133 136 138 138 140 141 141 138 136 133 132 131 131 129 124 112 115 125 121 116 121 126 127 113 98 107 117 125 126 130 122 118 117 116 108 104
234 223 210 251 232 350 267 237 228 235 246 266 271 47 46 55 63 237 114 162 213 238 236 211 221 165 166 52 25 77 358 144 105 101 128 130 137 127 136 139 138 137 141 143 137 137 139 132 137 134 134 135 137 132 130 129 129 131 131 132 137 139 141 142 141 142 142 140 139 138 137 134 132 132 129 119 110 101 104 101 95 97 115 123 117 121 129 130 133 134 130 125 120 121 112 108 111
199 211 194 224 257 252 248 239 239 235 231 251 270 111 181 95 280 95 227 216 173 236 202 231 216 123 127 125 85 58 77 23 147 118 135 139 132 136 146 147 144 137 139 145 147 130 138 131 134 136 138 140 141 140 135 133 134 135 136 136 139 142 142 141 140 142 142 143 144 144 141 135 130 127 112 95 104 107 105 106 105 103 108 117 128 137 139 139 139 132 125 123 118 116 110 109 116
233 225 166 222 222 205 226 246 250 240 225 214 233 353 125 32 351 241 235 243 166 232 179 228 202 217 96 189 90 76 64 51 81 95 128 137 133 138 147 148 144 142 142 138 131 129 129 132 138 142 145 145 145 141 140 138 138 138 139 140 139 140 141 142 143 144 143 145 147 146 136 127 122 124 108 108 110 111 114 118 118 109 110 117 134 134 137 137 138 128 125 122 125 123 118 114 117
222 243 205 232 242 213 237 237 243 238 259 151 259 260 12 265 271 301 277 224 22 273 166 203 190 228 163 91 94 105 80 88 97 113 127 135 138 145 149 151 143 137 126 108 122 128 139 138 141 144 146 148 148 145 143 142 143 143 142 143 142 142 141 143 144 140 141 140 138 137 137 123 127 111 104 105 111 124 118 116 127 118 117 125 121 129 126 108 118 127 127 129 128 127 120 121 129
219 222 194 235 244 238 231 232 239 234 241 230 304 100 35 8 250 242 258 234 239 190 229 192 181 231 114 108 125 110 99 109 115 126 136 137 142 145 145 138 128 105 88 118 130 137 137 144 143 144 144 145 146 146 148 148 147 146 144 142 142 139 136 134 133 137 139 143 143 136 129 129 122 106 109 122 131 127 127 127 123 124 132 126 122 120 125 126 128 134 137 133 132 134 134 143 146
217 204 268 241 235 248 235 234 228 233 236 199 228 233 267 252 257 250 241 254 231 227 198 210 181 199 124 103 92 105 117 130 134 129 135 138 145 144 137 136 98 107 112 129 138 139 145 149 143 139 139 142 143 146 147 148 146 143 143 141 138 132 128 128 135 142 141 138 132 123 121 127 118 122 122 129 142 139 133 134 132 130 128 126 124 125 129 131 132 140 133 133 130 133 145 150 146
227 210 206 240 239 241 234 250 231 235 182 110 246 148 122 260 278 255 231 235 228 235 227 154 207 205 133 141 119 118 145 139 132 128 136 149 146 142 134 114 113 104 116 137 144 146 145 142 147 143 139 139 142 145 146 144 143 141 136 133 130 127 127 133 139 136 138 134 132 123 129 126 132 134 142 147 159 150 143 138 133 129 127 124 125 127 132 133 130 130 132 127 126 115 121 112 90
243 225 219 242 248 237 257 257 272 320 296 172 225 102 215 247 240 242 264 249 224 226 212 182 111 192 79 92 106 130 152 135 134 141 148 152 143 137 128 123 112 114 144 163 157 150 145 151 149 153 144 139 144 142 141 139 133 131 132 132 128 129 135 137 138 134 131 133 125 126 134 142 150 154 155 163 159 149 146 137 134 128 127 126 123 126 130 137 139 140 136 141 143 142 148 129 111
233 241 240 241 247 265 260 257 248 239 218 244 155 106 177 282 296 281 266 246 232 233 187 155 227 96 105 112 126 164 145 146 144 152 152 144 141 131 115 98 121 144 168 161 150 145 151 150 144 147 145 149 147 143 133 128 126 129 133 134 135 137 139 137 137 131 132 127 125 130 136 144 147 150 155 151 146 148 142 138 131 134 135 133 135 136 136 145 147 150 145 144 149 164 166 144 143
237 239 268 265 257 252 237 262 245 222 265 134 92 236 261 187 264 239 240 231 225 334 87 118 289 127 159 174 153 175 156 153 149 154 151 143 140 131 114 115 116 126 154 139 143 151 154 152 150 145 152 145 148 156 152 133 131 135 141 139 141 140 141 144 142 139 133 131 129 133 141 145 142 145 145 142 144 147 139 132 135 139 140 143 140 138 139 140 146 149 142 145 151 160 181 149 148
246 256 254 256 247 249 229 229 246 311 148 129 110 200 243 162 241 241 221 271 81 125 168 132 7 166 176 201 170 153 154 156 151 152 147 148 139 126 120 121 133 136 143 146 151 155 156 159 152 150 143 152 165 138 137 144 142 153 149 146 144 143 134 136 132 132 133 128 133 138 141 141 136 137 138 143 148 143 145 148 146 144 147 143 137 133 132 138 143 148 142 141 146 157 167 227 188
232 256 252 236 248 239 244 234 217 225 111 219 118 160 266 166 123 251 351 229 209 153 202 150 160 24 153 120 140 131 147 148 147 147 151 152 146 140 139 136 142 143 144 154 161 158 155 163 154 148 154 159 149 131 104 115 152 158 151 142 130 122 127 126 133 129 128 134 139 145 149 136 124 144 154 152 145 151 142 131 150 147 143 141 135 134 133 133 134 138 148 150 154 157 175 209 252
219 225 234 239 241 239 236 244 216 303 358 81 155 114 235 243 160 138 222 218 201 174 135 75 88 94 101 103 118 134 142 147 149 156 152 153 157 144 144 148 152 148 147 147 161 164 159 157 160 142 153 139 137 131 140 126 136 157 153 142 135 132 130 119 129 138 147 150 150 152 150 110 83 191 162 151 160 145 142 143 145 148 147 142 141 141 138 137 137 137 146 159 172 181 187 194 195
224 223 233 242 231 245 261 307 275 102 260 88 50 213 240 25 271 121 244 200 161 178 157 131 104 106 124 140 134 139 147 146 157 159 158 158 161 153 146 149 148 148 153 153 166 162 165 163 158 146 119 140 103 130 133 138 148 163 151 151 131 95 106 91 200 165 176 155 163 153 86 92 182 222 185 169 161 146 137 143 144 149 152 147 151 148 150 145 142 150 162 185 196 206 203 213 185
222 239 228 233 252 258 30 325 354 272 27 276 247 88 253 69 268 112 223 186 185 176 166 133 138 137 134 133 141 143 147 156 156 157 163 162 160 150 153 153 150 150 155 155 163 171 166 176 132 142 159 146 145 161 131 146 149 145 148 138 118 150 180 156 199 176 156 166 188 127 141 133 204 194 188 161 151 158 131 139 141 147 151 160 157 164 156 162 159 170 186 208 220 209 207 223 202
198 234 240 237 223 250 207 226 245 257 283 316 260 22 251 165 299 207 192 175 202 135 157 151 156 134 159 146 142 148 149 154 158 159 160 168 165 152 148 163 157 153 183 168 167 171 173 170 122 142 129 143 146 144 152 158 148 153 153 138 149 156 160 156 198 105 228 193 177 195 180 156 190 199 125 134 186 164 153 149 155 170 166 173 179 185 182 166 193 184 189 215 214 216 225 226 229
231 227 239 253 270 293 316 339 100 270 265 275 267 241 242 39 222 223 219 178 207 175 159 193 139 157 166 153 149 150 154 159 157 166 169 167 171 158 153 164 159 158 152 192 156 194 168 183 134 134 140 147 145 150 153 145 152 155 146 151 151 159 164 168 178 215 222 208 214 213 189 128 198 183 143 156 170 164 164 157 164 184 207 177 200 205 195 173 203 203 205 200 219 207 213 178 219
239 230 238 247 261 294 248 199 163 227 231 221 229 240 354 245 259 250 263 270 165 73 119 106 154 152 181 150 144 153 161 161 159 166 169 176 174 154 156 148 131 165 176 173 159 185 167 173 119 146 149 138 146 154 143 152 159 146 148 148 152 152 162 174 198 180 226 245 216 222 158 128 178 175 166 179 167 171 171 114 76 231 252 198 219 220 214 250 228 236 271 230 223 224 195 189 209
231 247 223 234 246 236 262 257 202 222 245 251 251 342 249 239 241 176 233 93 133 138 154 174 149 168 165 152 145 152 160 163 172 173 174 174 171 155 140 157 165 167 183 140 174 188 148 174 145 150 148 138 152 161 149 152 151 145 143 139 151 151 180 176 200 146 200 226 184 210 121 126 168 167 159 209 179 179 189 149 170 182 224 190 232 224 191 227 226 230 230 229 210 213 191 223 211
223 238 251 249 228 227 237 250 246 238 231 242 255 249 236 225 254 87 210 168 143 158 169 153 174 133 151 144 151 146 165 169 172 167 165 161 161 144 151 175 159 171 187 158 172 167 182 158 152 146 147 149 155 148 140 144 149 149 148 148 150 168 187 190 180 203 196 218 162 163 136 120 234 118 157 228 227 230 101 232 155 198 182 197 202 176 217 226 236 221 216 219 213 214 199 206 232
224 243 243 241 237 242 238 238 239 237 238 229 230 235 238 240 282 260 244 162 127 154 174 155 172 155 151 148 145 151 163 169 152 154 156 153 167 151 156 161 158 174 172 165 171 166 169 160 153 156 152 158 150 151 146 153 153 151 151 151 172 166 200 208 190 227 234 122 162 145 60 332 109 175 189 227 163 351 37 342 270 198 232 190 209 214 164 223 267 256 268 208 225 205 234 191 213
209 228 239 249 234 227 227 238 230 226 232 225 230 229 230 222 203 228 229 134 156 182 166 178 174 165 149 152 152 157 163 163 156 145 157 166 172 172 165 174 180 174 168 166 168 169 162 168 162 153 146 143 151 149 145 150 151 153 151 164 170 180 202 195 192 213 156 126 89 63 84 327 120 133 237 230 169 143 76 273 303 345 1 285 286 265 10 222 230 228 218 222 233 146 258 184 211
268 280 251 237 242 239 243 229 236 230 222 223 234 237 234 212 201 241 211 161 185 187 175 177 188 159 155 155 158 158 163 158 150 157 167 172 182 180 178 180 183 177 174 174 171 166 165 172 162 163 153 151 157 145 144 145 158 160 141 130 177 168 191 180 222 190 120 92 85 81 107 135 349 293 200 280 309 96 163 96 324 317 311 358 17 344 306 308 260 292 275 326 23 24 322 312 296
250 243 256 247 237 239 233 234 224 225 232 209 216 240 231 203 222 227 190 162 177 194 189 188 179 158 159 156 161 159 161 166 157 166 176 180 188 189 186 184 184 185 185 177 166 165 167 171 162 140 135 156 158 145 146 158 165 137 133 154 190 212 179 212 174 184 118 105 94 92 106 106 243 235 270 242 77 289 134 143 110 275 341 37 24 335 10 316 333 345 7 32 33 181 254 302 304
244 244 249 247 233 233 225 223 229 219 221 215 200 227 221 217 216 231 172 196 194 196 200 193 183 164 156 166 152 154 151 159 165 173 182 183 196 192 194 188 185 190 176 180 167 169 162 157 162 146 152 159 155 160 153 154 171 169 155 175 159 174 192 172 173 168 131 110 121 135 191 211 195 233 227 257 225 212 78 80 71 90 59 39 277 275 288 335 357 18 47 73 289 341 336 323 15
229 235 234 245 243 232 210 211 207 224 198 212 195 236 227 213 209 216 179 186 186 204 206 197 190 167 165 157 154 151 157 176 176 183 181 189 197 199 189 192 191 193 197 182 175 163 167 156 163 143 157 158 155 143 164 147 153 142 155 110 146 166 140 168 169 149 142 144 137 127 118 163 200 181 184 195 256 344 104 122 209 152 153 133 256 344 340 355 357 1 9 353 9 324 346 348 311
227 229 223 223 240 243 221 195 202 211 185 193 202 238 247 245 207 202 174 188 186 207 204 200 196 179 164 158 163 170 171 182 188 189 186 194 191 198 196 193 194 189 201 179 176 168 151 146 172 147 135 170 149 139 137 121 121 134 98 123 138 153 154 149 163 161 151 140 126 130 150 169 177 175 148 187 221 186 153 119 86 148 118 148 217 261 14 280 353 320 309 303 287 259 340 296 316
213 231 227 222 218 236 241 169 191 200 204 181 213 233 226 244 262 172 158 190 194 211 200 203 190 189 164 169 164 166 172 183 188 185 184 197 193 201 203 201 196 199 202 173 171 150 153 129 162 110 120 337 79 83 39 68 115 95 133 157 135 160 147 138 135 139 131 140 142 142 135 143 180 152 179 155 203 232 117 124 159 143 115 145 158 209 222 101 0 307 278 284 298 310 271 282 276
212 208 239 232 220 213 240 157 196 191 222 192 199 230 239 180 91 136 168 195 195 217 204 204 194 184 177 179 170 171 178 188 192 183 188 198 197 201 204 202 200 191 194 167 140 129 97 101 76 51 43 46 5 18 86 297 277 140 144 141 154 142 149 143 140 137 124 132 124 125 138 141 156 140 138 146 237 206 121 111 67 19 195 142 209 213 208 176 164 211 242 280 279 253 282 277 277
209 204 219 232 232 219 230 189 175 208 204 221 191 219 238 206 176 160 198 193 205 216 213 200 194 186 182 186 175 170 177 185 191 194 193 198 201 200 199 194 191 162 152 126 105 109 122 114 86 82 104 77 84 329 358 333 257 142 134 136 132 146 131 113 121 107 100 109 116 125 130 137 136 141 145 168 156 56 27 160 134 205 145 189 165 251 249 226 189 205 247 272 270 269 246 215 275
220 206 217 231 218 208 230 219 156 197 186 211 215 207 216 238 225 163 183 200 201 215 213 198 191 184 189 193 177 177 180 186 188 191 195 199 199 202 192 176 169 142 113 77 98 117 113 107 92 106 105 106 89 344 30 283 232 166 146 143 146 129 116 103 99 102 114 117 107 107 107 109 119 129 137 132 127 122 128 32 90 153 197 190 186 170 219 212 210 190 214 233 249 260 239 218 219
331 276 213 222 229 217 214 233 140 188 215 204 221 229 224 218 233 196 180 188 212 218 214 195 189 187 193 193 186 180 185 181 184 193 198 198 199 195 189 165 153 108 96 96 93 95 94 90 113 138 148 145 141 138 146 235 210 165 151 141 131 137 112 116 115 107 100 79 87 104 111 105 102 106 105 121 123 127 154 115 116 159 124 263 87 84 237 183 209 220 223 221 249 252 276 207 169
274 261 258 229 229 237 180 207 134 178 234 204 220 232 223 231 225 223 171 189 209 213 211 195 196 187 196 199 186 176 177 173 177 190 195 196 194 188 179 162 149 102 99 123 124 106 103 130 165 167 159 152 145 152 170 242 225 153 153 149 137 125 132 138 119 105 98 98 88 77 79 86 95 98 91 76 72 83 98 139 144 146 195 113 217 186 211 188 225 175 187 246 259 261 240 316 175
244 263 240 247 212 250 181 167 128 163 201 242 220 219 229 218 231 191 172 194 209 215 219 195 206 195 193 189 185 165 176 180 181 189 193 192 192 181 178 157 122 105 124 122 121 123 142 156 172 176 165 163 165 156 123 260 200 155 162 133 130 125 102 98 103 103 112 105 95 93 82 89 83 85 93 91 104 84 79 95 99 127 193 165 144 207 163 140 228 224 195 196 274 251 106 277 303
239 232 251 228 227 216 184 180 195 189 216 221 224 228 225 231 221 178 183 204 212 212 216 200 202 197 195 187 181 173 182 179 189 189 190 190 187 181 170 149 111 114 136 133 133 159 164 160 175 163 153 145 146 119 199 256 148 135 91 117 90 90 96 88 98 101 101 116 106 96 97 87 90 86 77 101 68 63 42 40 109 83 117 204 307 269 157 163 174 201 252 203 221 255 227 206 232
228 245 238 240 232 214 242 176 204 190 209 249 279 248 230 207 189 207 194 206 203 206 210 199 193 193 192 183 180 180 180 187 185 186 187 185 182 179 170 130 111 122 130 146 155 166 175 165 165 147 144 163 148 146 215 211 128 111 104 85 84 93 110 123 130 123 113 106 115 113 101 106 99 70 65 51 62 59 39 29 39 106 98 51 262 266 172 233 196 183 171 142 234 249 19 291 287
217 225 247 249 233 222 197 127 192 198 215 202 226 235 232 180 206 209 185 190 199 193 202 199 186 195 181 181 183 185 186 192 186 189 187 181 167 168 157 129 131 126 146 183 174 170 164 144 152 154 150 150 172 175 200 144 144 127 125 123 125 133 130 145 129 126 136 128 98 105 107 88 79 104 86 59 56 59 54 47 22 28 54 38 46 41 41 49 332 249 192 254 184 133 71 230 238
237 202 220 245 272 252 223 182 206 223 232 183 201 243 224 186 196 199 181 192 200 185 202 197 189 195 179 190 184 189 195 193 191 184 175 150 141 120 61 60 43 101 164 202 171 150 161 143 150 152 149 152 148 183 148 146 134 138 135 139 145 141 132 111 105 107 95 97 104 92 87 92 105 85 77 84 72 64 58 46 43 32 41 45 52 52 42 29 23 33 25 350 29 28 317 342 17
237 209 188 228 243 240 232 246 221 246 269 44 205 224 248 192 196 189 179 195 197 193 195 201 185 199 187 191 173 195 195 199 193 188 101 118 182 168 155 155 157 148 178 158 155 139 131 132 150 143 115 135 169 157 137 142 143 142 153 153 152 142 124 119 122 104 100 105 107 113 111 113 113 107 110 106 106 80 66 73 56 34 353 59 47 49 30 44 37 44 42 38 27 61 360 18 78
239 203 200 211 226 225 228 231 240 240 245 229 206 225 234 243 214 175 179 195 197 186 181 190 201 168 199 196 179 186 193 193 204 117 110 215 217 194 145 140 125 128 112 105 122 77 39 49 91 147 142 184 150 141 141 152 156 155 164 155 155 122 125 131 125 125 119 117 124 118 107 103 94 88 87 76 67 86 98 82 61 62 32 20 44 83 41 40 46 43 39 35 31 43 61 60 33
202 223 214 223 213 224 224 226 235 215 231 240 232 207 230 198 178 165 179 210 198 177 169 188 165 153 204 197 186 181 175 225 110 111 163 193 217 188 137 120 121 129 132 95 96 110 131 120 122 107 81 111 94 81 103 168 154 168 169 154 134 130 135 133 133 126 127 135 113 109 117 119 110 106 87 71 70 62 73 90 73 54 50 30 35 48 74 62 48 51 48 44 38 37 37 40 44
50 260 207 219 221 226 227 250 237 248 237 242 234 211 220 219 153 180 213 207 207 139 159 176 165 181 212 221 192 172 182 167 108 184 172 170 184 162 135 140 135 129 143 144 165 156 139 129 141 131 117 104 108 103 77 35 315 181 164 138 134 137 137 136 134 139 136 138 138 140 135 123 115 105 103 89 73 77 60 53 61 74 73 52 51 68 64 72 72 56 49 57 48 46 36 49 46
199 221 227 194 209 218 218 218 230 224 239 237 214 219 205 248 172 198 188 160 162 165 165 175 168 164 200 220 192 198 181 150 158 163 164 151 156 152 151 144 130 137 148 150 139 137 143 150 153 138 138 137 139 135 122 113 16 312 134 132 139 141 144 146 147 149 152 145 144 142 127 124 119 115 106 95 85 86 87 89 81 73 64 64 65 51 55 67 66 66 56 44 52 53 47 56 42
226 223 226 219 202 213 212 208 215 219 237 234 230 199 212 221 92 301 126 135 92 163 191 173 173 175 188 203 221 224 170 174 174 156 150 155 154 154 153 138 126 140 150 144 148 155 158 161 155 150 150 151 145 148 138 133 133 343 192 153 142 152 157 153 156 155 155 146 149 144 145 135 135 122 105 104 100 96 91 79 80 82 80 61 61 72 64 62 74 66 65 68 56 55 53 48 50
213 221 216 217 207 207 233 220 213 225 216 158 239 189 238 157 92 127 45 89 154 103 83 108 152 148 184 173 183 203 185 166 165 164 166 158 156 144 146 144 136 150 152 154 161 160 154 156 156 148 150 156 147 144 141 140 140 134 240 164 153 168 168 163 162 157 155 153 149 148 149 142 129 121 120 115 115 104 92 88 81 81 85 89 80 65 51 41 58 84 68 59 64 57 51 54 54
215 227 231 230 231 213 225 238 226 221 239 174 202 207 235 216 157 119 124 136 139 123 126 142 153 175 191 208 179 181 134 137 174 164 180 164 151 149 152 145 142 157 160 161 161 161 143 150 156 150 150 157 154 150 145 141 141 148 182 200 153 186 168 171 167 154 156 151 151 154 144 136 132 129 123 114 112 108 100 91 85 85 87 86 84 86 85 68 61 68 68 65 68 60 61 66 57
208 223 231 231 218 210 252 33 330 3 277 184 191 221 192 268 91 101 115 117 142 131 139 145 156 162 162 120 153 140 138 167 169 147 143 139 116 113 138 134 151 162 165 164 166 162 159 156 156 157 154 157 162 157 155 149 145 140 179 182 186 182 181 176 158 157 151 152 154 150 142 140 130 126 125 127 124 118 116 113 104 93 91 94 90 87 86 84 76 76 76 69 66 69 69 62 70
176 218 224 227 227 240 254 193 188 156 269 253 184 208 160 139 159 136 129 116 165 124 106 86 81 91 103 112 112 132 138 143 144 147 158 121 101 80 129 149 166 161 162 165 162 152 139 131 136 133 128 127 139 153 132 131 133 145 176 179 192 182 178 181 160 156 150 150 148 145 146 136 129 130 131 133 128 126 120 110 109 105 98 93 98 101 101 98 91 86 86 79 76 73 71 69 63
214 228 227 243 327 304 266 272 154 220 233 226 212 212 210 189 196 160 163 184 158 130 117 96 96 104 94 101 103 113 131 131 137 116 105 110 123 156 150 144 152 166 168 158 154 140 138 136 137 134 131 145 154 159 139 130 138 154 175 180 175 188 178 175 160 154 150 147 145 148 137 142 144 137 140 140 135 127 122 121 121 117 108 101 97 93 96 100 98 91 84 83 85 86 83 78 75
257 265 197 253 181 216 225 264 248 228 220 243 209 208 246 230 174 176 179 164 133 121 102 112 105 97 96 94 91 102 108 112 119 119 115 122 131 112 92 98 138 135 141 143 136 126 118 133 144 147 152 153 156 158 150 142 150 161 168 171 165 175 190 168 162 156 151 152 155 149 155 160 145 149 145 143 143 137 135 130 123 124 122 116 110 108 105 97 101 103 103 96 85 77 79 83 73
243 273 259 232 264 257 232 208 250 232 236 220 226 212 220 282 253 143 174 108 123 116 130 106 95 93 99 104 103 104 107 113 111 115 122 122 120 129 147 166 134 122 114 118 127 120 107 102 129 130 129 138 146 153 149 152 157 158 168 164 162 170 200 177 163 161 159 156 162 159 164 166 153 152 151 150 149 148 145 146 139 128 135 132 128 119 108 108 105 102 107 99 96 105 98 92 87
203 216 236 223 228 217 257 246 236 230 240 232 223 225 113 53 357 186 168 130 139 147 119 111 105 98 90 87 94 99 115 117 117 116 120 123 132 146 140 141 137 123 121 132 149 131 123 130 139 126 134 148 146 148 155 155 165 174 172 168 170 187 199 173 164 163 167 165 166 162 164 164 161 157 160 161 154 157 157 154 149 150 140 141 135 130 126 123 109 97 94 107 116 112 108 89 97
219 213 222 234 225 213 218 236 232 249 265 245 238 220 100 33 336 58 109 133 133 125 124 115 106 101 96 96 94 101 90 98 103 115 123 137 139 149 143 137 135 142 150 155 142 137 138 139 143 138 140 151 150 157 173 170 176 174 181 165 182 192 181 173 168 168 175 169 166 164 164 167 173 161 172 172 161 159 162 161 158 157 149 146 151 140 146 132 120 119 111 106 123 103 83 86 71